This is the latest recevied weather packets stored in our database for station/object EA7URS-13. If no packets are shown the sender has not sent any weather packets the latest 10 day(s).
| Time | Temp. | Humidity | Pressure | Rain* | Wind** | Luminosity | Snow |
|---|---|---|---|---|---|---|---|
| 1788550674 | 35° C | 37% | 1009.6 hPa | 0 mm | - | 0 W/m² | - |
| 1788550373 | 35.56° C | 37% | 1009.6 hPa | 0 mm | - | 0 W/m² | - |
| 1788550072 | 35.56° C | 37% | 1009.6 hPa | 0 mm | - | 0 W/m² | - |
| 1788549771 | 35° C | 38% | 1009.5 hPa | 0 mm | - | 0 W/m² | - |
| 1788549469 | 35° C | 38% | 1009.5 hPa | 0 mm | - | 0 W/m² | - |
| 1788549168 | 35° C | 39% | 1009.5 hPa | 0 mm | - | 0 W/m² | - |
| 1788548867 | 35° C | 39% | 1009.5 hPa | 0 mm | - | 0 W/m² | - |
| 1788548566 | 35° C | 40% | 1009.3 hPa | 0 mm | - | 1 W/m² | - |
| 1788548265 | 35° C | 40% | 1009.3 hPa | 0 mm | - | 1 W/m² | - |
| 1788547964 | 35° C | 40% | 1009.6 hPa | 0 mm | - | 2 W/m² | - |
| 1788547663 | 35° C | 40% | 1009.6 hPa | 0 mm | - | 2 W/m² | - |
| 1788547362 | 34.44° C | 44% | 1009.7 hPa | 0 mm | - | 6 W/m² | - |
| 1788547061 | 34.44° C | 44% | 1009.7 hPa | 0 mm | - | 6 W/m² | - |
| 1788546760 | 33.33° C | 52% | 1009.7 hPa | 0 mm | - | 9 W/m² | - |
| 1788546459 | 33.33° C | 52% | 1009.7 hPa | 0 mm | - | 9 W/m² | - |
| 1788546164 | 33.33° C | 52% | 1009.7 hPa | 0 mm | - | 13 W/m² | - |
| 1788545856 | 33.33° C | 52% | 1009.7 hPa | 0 mm | - | 13 W/m² | - |
| 1788545555 | 33.33° C | 52% | 1009.6 hPa | 0 mm | - | 28 W/m² | - |
| 1788545254 | 33.33° C | 52% | 1009.6 hPa | 0 mm | - | 28 W/m² | - |
| 1788544953 | 33.33° C | 52% | 1009.5 hPa | 0 mm | - | 41 W/m² | - |
| 1788544652 | 33.33° C | 52% | 1009.5 hPa | 0 mm | - | 41 W/m² | - |
| 1788544350 | 34.44° C | 53% | 1009.5 hPa | 0 mm | - | 50 W/m² | - |
| 1788544049 | 34.44° C | 53% | 1009.5 hPa | 0 mm | - | 50 W/m² | - |
| 1788543748 | 35.56° C | 47% | 1009.6 hPa | 0 mm | - | 55 W/m² | - |
| 1788543444 | 35.56° C | 47% | 1009.6 hPa | 0 mm | - | 55 W/m² | - |
* Rain latest hour (hover to see other rain measurements)
** Current wind speed in m/s (hover to see current wind gust speed)